STARLINK-32192 (60316 NORAD) Tracking and Keplerian Element Data

This shows tracking and keplerian element data for the satellite.

Feedback or suggestion? Click here.




ElementValue
Catalog60316
NameSTARLINK-32192
Epoch Orbit1304
Epoch Day286.41124828
Epoch Year2024
RAAN168.3976
Inclination53.1583
Eccentricity0.0001574
Argument of Perigee116.7494
Mean Anonmoly243.3672
Mean Motion15.39533023
Decay Rate-0.0013717
L11 60316U 24133R 24286.41124828 -.00137170 00000+0 -34911-2 0 9991
L22 60316 53.1583 168.3976 0001574 116.7494 243.3672 15.39533023 13041



Live tracking and technical data element details for STARLINK-32192 (NORAD 60316). STARLINK-32192 can be tracked NOW for your location showing map with azimuth and elevation plus other details from your city location.







IsCatalogInMostPopularTable: catalog: 60316, numindb: 8
Update: records affected: 1



GetName: 60316 STARLINK-32192

Hit Count: updated at: Tue, 03 Dec 2024 02:35:44 GMT